Leconfield, United Kingdom

12:01 PM GMT on January 23, 2017 (GMT +0000)
Leconfield

Weather History for EGXV - October, 2012

Change the Weather History Date:

Sunday, October 14, 2012

  Actual Average Record
Temperature  
Mean Temperature 44 °F -  
Max Temperature 51 °F 51 °F - ()
Min Temperature 37 °F 41 °F - ()
Degree Days  
Heating Degree Days 21    
Moisture  
Dew Point 41 °F    
Average Humidity 87    
Maximum Humidity 100    
Minimum Humidity 71    
Precipitation  
Precipitation 0.00 in - - ()
Sea Level Pressure  
Sea Level Pressure 29.56 in    
Wind  
Wind Speed 6 mph ()    
Max Wind Speed 13 mph    
Max Gust Speed -    
Visibility 6.2 miles    
Events Rain    
T = Trace of Precipitation, MM = Missing Value Source: Averaged Metar Reports

Daily Weather History Graph

Daily Weather History Graph

Search for Another Location

Airport or City:

Trip Planner

Search our weather history database for the weather conditions in past years. The results will help you decide how hot, cold, wet, or windy it might be!

Date:

Astronomy

Oct. 14, 2012 Rise Set
Actual Time 7:28 AM BST 6:06 PM BST
Civil Twilight 6:52 AM BST 6:41 PM BST
Nautical Twilight 6:11 AM BST 7:22 PM BST
Astronomical Twilight 5:30 AM BST 8:03 PM BST
Moon 6:04 AM BST (10/14) 5:17 PM BST (10/14)
Length of Visible Light 11h 49m
Length of Day
10h 38m
Waning Crescent, 2% of the Moon is Illuminated
Oct 14
Waning Crescent
Oct 15
New
Oct 22
First Quarter
Oct 29
Full
Nov 7
Last Quarter

Hourly Weather History & Observations

Time (BST) Temp. Windchill Dew Point Humidity Pressure Visibility Wind Dir Wind Speed Gust Speed Precip Events Conditions
1:50 AM 39.2 °F 37.0 °F 37.4 °F 93% 29.56 in 6.2 mi West 3.5 mph - N/A   Mostly Cloudy
2:50 AM 37.4 °F 33.8 °F 37.4 °F 100% 29.56 in 6.2 mi West 4.6 mph - N/A   Partly Cloudy
3:50 AM 39.2 °F 33.6 °F 37.4 °F 93% 29.56 in 6.2 mi West 8.1 mph - N/A   Scattered Clouds
5:50 AM 37.4 °F 32.8 °F 37.4 °F 100% 29.56 in 6.2 mi West 5.8 mph - N/A   Scattered Clouds
6:50 AM 39.2 °F 37.0 °F 37.4 °F 93% 29.56 in 6.2 mi NW 3.5 mph - N/A   Mostly Cloudy
7:50 AM 41.0 °F 37.1 °F 39.2 °F 93% 29.56 in 6.2 mi West 5.8 mph - N/A   Overcast
8:50 AM 41.0 °F 37.1 °F 39.2 °F 93% 29.56 in 6.2 mi West 5.8 mph - N/A   Overcast
9:50 AM 44.6 °F 41.4 °F 42.8 °F 93% 29.56 in 6.2 mi WNW 5.8 mph - N/A   Mostly Cloudy
10:50 AM 50.0 °F - 44.6 °F 82% 29.56 in 6.2 mi NNW 9.2 mph - N/A   Unknown
11:50 AM 50.0 °F - 44.6 °F 82% 29.56 in 6.2 mi NNW 11.5 mph - N/A   Partly Cloudy
12:50 PM 51.8 °F - 42.8 °F 71% 29.53 in 6.2 mi NNW 12.7 mph - N/A   Mostly Cloudy
1:50 PM 50.0 °F - 44.6 °F 82% 29.53 in 6.2 mi NNW 9.2 mph - N/A   Mostly Cloudy
2:50 PM 50.0 °F - 44.6 °F 82% 29.53 in 6.2 mi North 11.5 mph - N/A Rain Light Rain
3:50 PM 51.8 °F - 44.6 °F 76% 29.56 in 6.2 mi NNE 11.5 mph - N/A   Scattered Clouds
4:50 PM 50.0 °F - 42.8 °F 76% 29.56 in 6.2 mi North 6.9 mph - N/A   Scattered Clouds
5:50 PM 48.2 °F - 42.8 °F 82% 29.59 in 6.2 mi North 5.8 mph - N/A   Scattered Clouds
6:50 PM 46.4 °F 43.5 °F 41.0 °F 81% 29.59 in 6.2 mi NW 5.8 mph - N/A   Partly Cloudy
7:50 PM 42.8 °F 41.1 °F 39.2 °F 87% 29.59 in 6.2 mi NW 3.5 mph - N/A   Unknown
8:50 PM 42.8 °F 39.3 °F 39.2 °F 87% 29.59 in 6.2 mi WNW 5.8 mph - N/A   Unknown
9:50 PM 42.8 °F 39.3 °F 39.2 °F 87% 29.59 in 6.2 mi WNW 5.8 mph - N/A   Unknown
10:50 PM 42.8 °F 39.3 °F 37.4 °F 81% 29.59 in 6.2 mi WNW 5.8 mph - N/A   Unknown
11:50 PM 39.2 °F 35.9 °F 37.4 °F 93% 29.56 in 6.2 mi West 4.6 mph - N/A   Unknown